Regional Weather Roundup
Issued by NWS

Home | Current Version | Previous Version | Text Only | Print | Product List | Glossary Off
Versions: 1 2 3 4 5 6 7 8 9 10 11 12 13 14 15 16 17 18 19 20 21 22 23 24 25 26 27 28 29 30 31 32 33 34 35 36 37 38 39 40 41 42 43 44 45 46 47 48 49 50

000
ASUS43 KLSX 220107
RWRMO

WEATHER SUMMARY FOR MISSOURI
NATIONAL WEATHER SERVICE SPRINGFIELD MO
700 PM CST SAT JAN 21 2017

NOTE: "FAIR" INDICATES FEW OR NO CLOUDS BELOW 12,000 FEET WITH NO
       SIGNIFICANT WEATHER AND/OR OBSTRUCTIONS TO VISIBILITY.
       CURRENT SKY AND/OR WEATHER CONDITIONS ARE NOT AVAILABLE FOR
       CHILLICOTHE AND FARMINGTON.

MOZ001>031-035>038-043-044-053-054-220200-
...NORTHERN AND WESTERN MISSOURI...

CITY           SKY/WX    TMP DP  RH WIND       PRES   REMARKS
KANSAS CTY INT CLOUDY    50  40  68 E3        29.51R
KANSAS C DTWN  LGT RAIN  51  43  74 CALM      29.51R
LEE`S SUMMIT   LGT RAIN  49  44  83 CALM      29.52R
ST JOSEPH      PTCLDY    41  40  96 N3        29.53R
CHILLICOTHE      N/A     40  39  97 CALM      29.55S
KIRKSVILLE     FOG       38  38 100 CALM      29.56S VSB 1/2

$$
MOZ066>068-077>081-088>096-101>105-220200-
...SOUTHWEST MISSOURI...

CITY           SKY/WX    TMP DP  RH WIND       PRES   REMARKS
SPRINGFIELD    CLOUDY    57  42  57 CALM      29.49R
JOPLIN         CLOUDY    53  46  77 VRB5      29.46F
BRANSON        CLOUDY    59  39  47 CALM      29.50S THUNDER

$$
MOZ032>034-039>042-045>050-055>058-069>072-220200-
...CENTRAL MISSOURI...

CITY           SKY/WX    TMP DP  RH WIND       PRES   REMARKS
COLUMBIA       MOCLDY    56  38  50 NW5       29.53R
JEFFERSON CITY CLOUDY    53  40  61 NE5       29.53R
ROLLA          MOCLDY    51  41  68 NE5       29.51S
SEDALIA        CLOUDY    52  42  69 E3        29.54R
WHITEMAN AFB   CLOUDY    49  48  97 NE5       29.51R
WARRENSBURG    CLOUDY    48  43  81 NE3       29.52R
OSAGE BEACH    CLOUDY    54  37  52 NE3       29.52S

$$
MOZ051-052-059>065-220200-
...EAST CENTRAL MISSOURI...

CITY           SKY/WX    TMP DP  RH WIND       PRES   REMARKS
ST LOUIS INTL  CLOUDY    59  40  49 CALM      29.54R
SPIRIT OF STL  PTCLDY    53  43  68 CALM      29.53R
ST CHARLES     CLOUDY    53  46  77 CALM      29.53R

$$
MOZ072>076-082>087-097>100-106>115-220200-
...SOUTH CENTRAL AND SOUTHEAST MISSOURI...

CITY           SKY/WX    TMP DP  RH WIND       PRES   REMARKS
CAPE GIRARDEAU PTCLDY    57  52  83 SE5       29.56R
FARMINGTON     CLOUDY    58  51  78 SE3       29.56R
POPLAR BLUFF   CLOUDY    58  56  93 SE3       29.54S
WEST PLAINS    CLOUDY    59  46  62 SE3       29.53F

$$



USA.gov is the U.S. government's official web portal to all federal, state and local government web resources and services.